• In Portugal
  • List of Countries
  • For 7 days
  • Water Temperature
  • Satellite Maps
  • Weather Map
  • Weather Widgets
  • user-avatar
    Login

    Hourly Weather Sur

    Today, 24 June, Sunday

    Time Temperature Precipitation Wind Pressure Humidity
    00:00 +26°C° 0 mm 2 mps 758 mmHg 76%
    01:00 +25°C° 0 mm 2 mps 758 mmHg 78%
    02:00 +25°C° 0 mm 3 mps 757 mmHg 82%
    03:00 +25°C° 0 mm 3 mps 757 mmHg 83%
    04:00 +25°C° 0 mm 2 mps 757 mmHg 83%
    05:00 +24°C° 0 mm 2 mps 758 mmHg 83%
    06:00 +26°C° 0 mm 2 mps 758 mmHg 75%
    07:00 +28°C° 0 mm 2 mps 758 mmHg 66%
    08:00 +30°C° 0 mm 2 mps 757 mmHg 54%
    09:00 +31°C° 0 mm 3 mps 758 mmHg 50%
    10:00 +33°C° 0 mm 3 mps 758 mmHg 46%
    11:00 +34°C° 0 mm 3 mps 758 mmHg 42%
    12:00 +34°C° 0 mm 4 mps 758 mmHg 43%
    13:00 +34°C° 0 mm 4 mps 757 mmHg 43%
    14:00 +33°C° 0 mm 3 mps 757 mmHg 47%
    15:00 +33°C° 0 mm 3 mps 757 mmHg 49%
    16:00 +33°C° 0 mm 3 mps 757 mmHg 50%
    17:00 +32°C° 0 mm 4 mps 757 mmHg 51%
    18:00 +30°C° 0 mm 3 mps 757 mmHg 57%
    19:00 +29°C° 0 mm 3 mps 757 mmHg 63%
    20:00 +27°C° 0 mm 3 mps 757 mmHg 70%
    21:00 +27°C° 0 mm 2 mps 757 mmHg 72%
    22:00 +26°C° 0 mm 2 mps 758 mmHg 75%
    23:00 +26°C° 0 mm 2 mps 758 mmHg 78%

    Tomorrow, 25 June, Monday

    Time Temperature Precipitation Wind Pressure Humidity
    00:00 +26°C° 0 mm 2 mps 757 mmHg 79%
    01:00 +25°C° 0 mm 2 mps 757 mmHg 80%
    02:00 +25°C° 0 mm 1 mps 757 mmHg 81%
    03:00 +25°C° 0 mm 1 mps 757 mmHg 81%
    04:00 +25°C° 0 mm 1 mps 757 mmHg 81%
    05:00 +24°C° 0 mm 1 mps 758 mmHg 81%
    06:00 +26°C° 0 mm 1 mps 758 mmHg 72%
    07:00 +28°C° 0 mm 2 mps 758 mmHg 63%
    08:00 +30°C° 0 mm 2 mps 758 mmHg 54%
    09:00 +31°C° 0 mm 2 mps 758 mmHg 50%
    10:00 +33°C° 0 mm 3 mps 757 mmHg 45%
    11:00 +34°C° 0 mm 3 mps 757 mmHg 41%
    12:00 +35°C° 0 mm 3 mps 757 mmHg 41%
    13:00 +35°C° 0 mm 3 mps 757 mmHg 42%
    14:00 +35°C° 0 mm 4 mps 757 mmHg 42%
    15:00 +35°C° 0 mm 4 mps 757 mmHg 46%
    16:00 +34°C° 0 mm 4 mps 756 mmHg 49%
    17:00 +33°C° 0 mm 4 mps 756 mmHg 53%
    18:00 +31°C° 0 mm 3 mps 756 mmHg 61%
    19:00 +29°C° 0 mm 3 mps 757 mmHg 69%
    20:00 +28°C° 0 mm 3 mps 757 mmHg 77%
    21:00 +28°C° 0 mm 2 mps 757 mmHg 79%
    22:00 +27°C° 0 mm 2 mps 757 mmHg 81%
    23:00 +27°C° 0 mm 2 mps 757 mmHg 83%

    Day after tomorrow, 26 June, Tuesday

    Time Temperature Precipitation Wind Pressure Humidity
    00:00 +26°C° 0 mm 2 mps 757 mmHg 82%
    01:00 +26°C° 0 mm 1 mps 757 mmHg 81%
    02:00 +25°C° 0 mm 1 mps 757 mmHg 80%
    03:00 +25°C° 0 mm 1 mps 757 mmHg 80%
    04:00 +25°C° 0 mm 1 mps 757 mmHg 80%
    05:00 +25°C° 0 mm 1 mps 757 mmHg 81%
    06:00 +27°C° 0 mm 1 mps 757 mmHg 70%
    07:00 +29°C° 0 mm 1 mps 757 mmHg 58%
    08:00 +31°C° 0 mm 2 mps 757 mmHg 47%
    09:00 +32°C° 0 mm 2 mps 756 mmHg 43%
    10:00 +34°C° 0 mm 3 mps 756 mmHg 39%
    11:00 +36°C° 0 mm 3 mps 756 mmHg 35%
    12:00 +36°C° 0 mm 3 mps 756 mmHg 36%
    13:00 +37°C° 0 mm 4 mps 756 mmHg 37%
    14:00 +37°C° 0 mm 4 mps 755 mmHg 38%
    15:00 +36°C° 0 mm 4 mps 755 mmHg 42%
    16:00 +35°C° 0 mm 4 mps 755 mmHg 46%
    17:00 +35°C° 0 mm 4 mps 754 mmHg 50%
    18:00 +33°C° 0 mm 4 mps 755 mmHg 58%
    19:00 +31°C° 0 mm 3 mps 755 mmHg 66%
    20:00 +29°C° 0 mm 3 mps 755 mmHg 75%
    21:00 +29°C° 0 mm 3 mps 755 mmHg 77%
    22:00 +28°C° 0 mm 3 mps 756 mmHg 79%
    23:00 +28°C° 0 mm 2 mps 756 mmHg 81%

    27 June, Wednesday

    Time Temperature Precipitation Wind Pressure Humidity
    00:00 +27°C° 0 mm 2 mps 755 mmHg 79%
    01:00 +27°C° 0 mm 2 mps 755 mmHg 78%
    02:00 +26°C° 0 mm 1 mps 755 mmHg 76%
    03:00 +26°C° 0 mm 1 mps 755 mmHg 74%
    04:00 +26°C° 0 mm 1 mps 755 mmHg 71%
    05:00 +26°C° 0 mm 1 mps 755 mmHg 68%
    06:00 +28°C° 0 mm 1 mps 755 mmHg 57%
    07:00 +31°C° 0 mm 1 mps 755 mmHg 45%
    08:00 +33°C° 0 mm 1 mps 755 mmHg 34%
    09:00 +35°C° 0 mm 2 mps 755 mmHg 30%
    10:00 +37°C° 0 mm 2 mps 755 mmHg 26%
    11:00 +39°C° 0 mm 3 mps 755 mmHg 22%
    12:00 +39°C° 0 mm 3 mps 755 mmHg 24%
    13:00 +40°C° 0 mm 4 mps 755 mmHg 25%
    14:00 +40°C° 0 mm 5 mps 754 mmHg 26%
    15:00 +38°C° 0 mm 4 mps 754 mmHg 30%
    16:00 +37°C° 0 mm 4 mps 754 mmHg 33%
    17:00 +36°C° 0 mm 4 mps 754 mmHg 36%
    18:00 +35°C° 0 mm 4 mps 754 mmHg 44%
    19:00 +33°C° 0 mm 3 mps 754 mmHg 52%
    20:00 +30°C° 0 mm 3 mps 755 mmHg 59%
    21:00 +30°C° 0 mm 3 mps 755 mmHg 57%
    22:00 +30°C° 0 mm 2 mps 754 mmHg 55%
    23:00 +29°C° 0 mm 2 mps 754 mmHg 52%

    28 June, Thursday

    Time Temperature Precipitation Wind Pressure Humidity
    00:00 +29°C° 0 mm 2 mps 754 mmHg 48%
    01:00 +29°C° 0 mm 2 mps 754 mmHg 43%
    02:00 +29°C° 0 mm 2 mps 754 mmHg 39%
    03:00 +29°C° 0 mm 2 mps 754 mmHg 37%
    04:00 +29°C° 0 mm 3 mps 754 mmHg 36%
    05:00 +29°C° 0 mm 3 mps 754 mmHg 35%
    06:00 +30°C° 0 mm 3 mps 755 mmHg 37%
    07:00 +33°C° 0 mm 3 mps 755 mmHg 39%
    08:00 +34°C° 0 mm 3 mps 755 mmHg 41%
    09:00 +36°C° 0 mm 3 mps 755 mmHg 39%
    10:00 +37°C° 0 mm 3 mps 756 mmHg 38%
    11:00 +38°C° 0 mm 4 mps 756 mmHg 36%
    12:00 +38°C° 0 mm 4 mps 755 mmHg 36%
    13:00 +38°C° 0 mm 4 mps 755 mmHg 35%
    14:00 +40°C° 0 mm 4 mps 755 mmHg 34%
    15:00 +38°C° 0 mm 4 mps 755 mmHg 37%
    16:00 +37°C° 0 mm 4 mps 755 mmHg 40%
    17:00 +36°C° 0 mm 4 mps 755 mmHg 44%
    18:00 +34°C° 0 mm 4 mps 755 mmHg 55%
    19:00 +32°C° 0 mm 4 mps 756 mmHg 65%
    20:00 +30°C° 0 mm 3 mps 756 mmHg 76%
    21:00 +29°C° 0 mm 3 mps 756 mmHg 78%
    22:00 +29°C° 0 mm 3 mps 756 mmHg 81%
    23:00 +28°C° 0 mm 3 mps 756 mmHg 83%

    29 June, Friday

    Time Temperature Precipitation Wind Pressure Humidity
    00:00 +28°C° 0 mm 3 mps 756 mmHg 84%
    01:00 +27°C° 0 mm 3 mps 756 mmHg 85%
    02:00 +27°C° 0 mm 3 mps 756 mmHg 86%
    03:00 +26°C° 0 mm 2 mps 756 mmHg 86%
    04:00 +26°C° 0 mm 2 mps 756 mmHg 87%
    05:00 +26°C° 0 mm 2 mps 756 mmHg 87%
    06:00 +27°C° 0 mm 2 mps 757 mmHg 77%
    07:00 +29°C° 0 mm 3 mps 757 mmHg 66%
    08:00 +30°C° 0 mm 3 mps 757 mmHg 56%
    09:00 +33°C° 0 mm 3 mps 757 mmHg 50%
    10:00 +34°C° 0 mm 3 mps 757 mmHg 45%
    11:00 +35°C° 0 mm 4 mps 756 mmHg 39%
    12:00 +35°C° 0 mm 4 mps 756 mmHg 39%
    13:00 +35°C° 0 mm 4 mps 756 mmHg 38%
    14:00 +35°C° 0 mm 4 mps 755 mmHg 37%
    15:00 +35°C° 0 mm 4 mps 755 mmHg 41%
    16:00 +34°C° 0 mm 4 mps 755 mmHg 45%
    17:00 +33°C° 0 mm 4 mps 755 mmHg 49%
    18:00 +31°C° 0 mm 3 mps 755 mmHg 57%
    19:00 +29°C° 0 mm 3 mps 755 mmHg 64%
    20:00 +28°C° 0 mm 3 mps 756 mmHg 72%
    21:00 +27°C° 0 mm 3 mps 756 mmHg 76%
    22:00 +27°C° 0 mm 2 mps 756 mmHg 80%
    23:00 +26°C° 0 mm 2 mps 756 mmHg 83%
    Show more